Location: Comstock Ranch
(38.0499°N, 120.2627°W)
Time: 20:58:06
(UTC+00:00)

Cosmos 1763 Rocket - Pass Details

Date: 08 September 2024
Orbit: 730 x 776 km, 74.0° (Epoch: 12 October)

Event Time Altitude Azimuth Distance (km) Brightness Sun altitude
Rises 12:17:39 0° 342° (NNW) 3,183 6.7 -16.0°
Reaches altitude 10° 12:20:00 10° 342° (NNW) 2,263 6.0 -15.6°
Maximum altitude 12:25:08 88° 72° (ENE) 757 3.5 -14.7°
Drops below altitude 10° 12:30:19 10° 162° (SSE) 2,279 6.0 -13.7°
Sets 12:32:41 0° 163° (SSE) 3,208 6.7 -13.2°
